Soldotna, AK

4:20 AM AKDT on October 23, 2017 (GMT -0800)
Soldotna

Weather History for PASX - February, 2013

Change the Weather History Date:

Wednesday, February 13, 2013

  Actual Average Record
Temperature  
Mean Temperature 25 °F -  
Max Temperature 33 °F 26 °F 44 °F (2016)
Min Temperature 17 °F 8 °F -31 °F (1956)
Degree Days  
Heating Degree Days 40    
Moisture  
Dew Point 22 °F    
Average Humidity 87    
Maximum Humidity 93    
Minimum Humidity 70    
Precipitation  
Precipitation 0.00 in - - ()
Sea Level Pressure  
Sea Level Pressure 29.72 in    
Wind  
Wind Speed 3 mph (ENE)    
Max Wind Speed 9 mph    
Max Gust Speed -    
Visibility 10 miles    
Events      
Averages and records for this station are not official NWS values.
T = Trace of Precipitation, MM = Missing Value Source: NWS Daily Summary

Daily Weather History Graph

Daily Weather History Graph

Search for Another Location

Airport or City:

Trip Planner

Search our weather history database for the weather conditions in past years. The results will help you decide how hot, cold, wet, or windy it might be!

Date:

Astronomy

Feb. 13, 2013 Rise Set
Actual Time 8:48 AM AKST 5:49 PM AKST
Civil Twilight 8:03 AM AKST 6:34 PM AKST
Nautical Twilight 7:13 AM AKST 7:24 PM AKST
Astronomical Twilight 6:24 AM AKST 8:13 PM AKST
Moon 9:08 AM AKST (2/13) 11:27 PM AKST (2/13)
Length of Visible Light 10h 31m
Length of Day
9h 01m
Waxing Crescent, 15% of the Moon is Illuminated
Feb 13
Waxing Crescent
Feb 17
First Quarter
Feb 25
Full
Mar 4
Last Quarter
Mar 11
New

Hourly Weather History & Observations

Time (AKST) Temp. Windchill Dew Point Humidity Pressure Visibility Wind Dir Wind Speed Gust Speed Precip Events Conditions
12:16 AM 23.0 °F - 19.4 °F 86% 29.72 in 10.0 mi Calm Calm - N/A   Overcast
12:36 AM 23.0 °F - 19.4 °F 86% 29.72 in 10.0 mi Calm Calm - N/A   Overcast
12:56 AM 24.8 °F - 21.2 °F 86% 29.73 in 10.0 mi Calm Calm - N/A   Overcast
1:16 AM 24.8 °F - 21.2 °F 86% 29.74 in 10.0 mi Calm Calm - N/A   Overcast
1:36 AM 24.8 °F - 21.2 °F 86% 29.74 in 10.0 mi Calm Calm - N/A   Overcast
1:56 AM 24.8 °F 20.5 °F 21.2 °F 86% 29.75 in 10.0 mi SW 3.5 mph - N/A   Overcast
2:16 AM 24.8 °F - 21.2 °F 86% 29.75 in 10.0 mi Calm Calm - N/A   Overcast
2:36 AM 23.0 °F - 21.2 °F 93% 29.76 in 10.0 mi Calm Calm - N/A   Overcast
2:56 AM 23.0 °F - 21.2 °F 93% 29.76 in 10.0 mi Calm Calm - N/A   Overcast
3:16 AM 21.2 °F - 19.4 °F 93% 29.76 in 10.0 mi Calm Calm - N/A   Overcast
3:36 AM 21.2 °F - 19.4 °F 93% 29.76 in 10.0 mi Calm Calm - N/A   Overcast
3:56 AM 23.0 °F - 21.2 °F 93% 29.76 in 10.0 mi Calm Calm - N/A   Overcast
4:16 AM 21.2 °F - 19.4 °F 93% 29.76 in 10.0 mi Calm Calm - N/A   Overcast
4:36 AM 21.2 °F - 19.4 °F 93% 29.77 in 10.0 mi Calm Calm - N/A   Overcast
4:56 AM 19.4 °F - 17.6 °F 93% 29.77 in 10.0 mi Calm Calm - N/A   Mostly Cloudy
5:16 AM 17.6 °F - 15.8 °F 93% 29.77 in 1.5 mi Calm Calm - N/A   Scattered Clouds
5:56 AM 19.4 °F - 17.6 °F 93% 29.77 in 10.0 mi Calm Calm - N/A   Overcast
6:16 AM 19.4 °F 14.3 °F 17.6 °F 93% 29.77 in 10.0 mi East 3.5 mph - N/A   Overcast
6:36 AM 21.2 °F 12.6 °F 19.4 °F 93% 29.77 in 10.0 mi ESE 6.9 mph - N/A   Overcast
6:56 AM 21.2 °F 13.6 °F 17.6 °F 86% 29.77 in 10.0 mi ESE 5.8 mph - N/A   Overcast
7:16 AM 21.2 °F 14.9 °F 19.4 °F 93% 29.77 in 10.0 mi ESE 4.6 mph - N/A   Overcast
7:36 AM 21.2 °F 16.4 °F 19.4 °F 93% 29.77 in 4.0 mi ESE 3.5 mph - N/A   Overcast
7:56 AM 21.2 °F 14.9 °F 19.4 °F 93% 29.78 in 2.0 mi ESE 4.6 mph - N/A   Overcast
8:16 AM 21.2 °F 16.4 °F 19.4 °F 93% 29.79 in 10.0 mi East 3.5 mph - N/A   Overcast
8:36 AM 21.2 °F 16.4 °F 19.4 °F 93% 29.79 in 10.0 mi ENE 3.5 mph - N/A   Overcast
8:56 AM 21.2 °F - 19.4 °F 93% 29.79 in 10.0 mi Calm Calm - N/A   Overcast
9:16 AM 21.2 °F 16.4 °F 19.4 °F 93% 29.79 in 10.0 mi East 3.5 mph - N/A   Mostly Cloudy
9:36 AM 21.2 °F 14.9 °F 17.6 °F 86% 29.79 in 10.0 mi ESE 4.6 mph - N/A   Partly Cloudy
9:56 AM 19.4 °F 14.3 °F 17.6 °F 93% 29.79 in 10.0 mi East 3.5 mph - N/A   Partly Cloudy
10:16 AM 19.4 °F - 17.6 °F 93% 29.79 in 10.0 mi Calm Calm - N/A   Clear
10:36 AM 21.2 °F 13.6 °F 17.6 °F 86% 29.79 in 10.0 mi East 5.8 mph - N/A   Clear
10:56 AM 21.2 °F 16.4 °F 19.4 °F 93% 29.79 in 10.0 mi East 3.5 mph - N/A   Clear
11:16 AM 21.2 °F 14.9 °F 19.4 °F 93% 29.79 in 10.0 mi East 4.6 mph - N/A   Clear
11:36 AM 21.2 °F 14.9 °F 19.4 °F 93% 29.79 in 10.0 mi ESE 4.6 mph - N/A   Clear
11:56 AM 23.0 °F 17.0 °F 21.2 °F 93% 29.78 in 10.0 mi ESE 4.6 mph - N/A   Clear
12:16 PM 24.8 °F 20.5 °F 21.2 °F 86% 29.78 in 10.0 mi ESE 3.5 mph - N/A   Clear
12:36 PM 24.8 °F 19.1 °F 21.2 °F 86% 29.77 in 10.0 mi ESE 4.6 mph - N/A   Clear
12:56 PM 26.6 °F 21.2 °F 21.2 °F 80% 29.77 in 10.0 mi SE 4.6 mph - N/A   Clear
1:16 PM 26.6 °F 22.6 °F 21.2 °F 80% 29.76 in 10.0 mi SE 3.5 mph - N/A   Mostly Cloudy
1:36 PM 26.6 °F 22.6 °F 23.0 °F 86% 29.77 in 10.0 mi ESE 3.5 mph - N/A   Overcast
1:56 PM 26.6 °F 22.6 °F 23.0 °F 86% 29.77 in 10.0 mi ESE 3.5 mph - N/A   Overcast
2:16 PM 28.4 °F - 24.8 °F 86% 29.75 in 10.0 mi Calm Calm - N/A   Overcast
2:36 PM 28.4 °F - 24.8 °F 86% 29.75 in 10.0 mi Calm Calm - N/A   Scattered Clouds
2:56 PM 30.2 °F 21.9 °F 26.6 °F 86% 29.74 in 10.0 mi NE 9.2 mph - N/A   Scattered Clouds
3:16 PM 30.2 °F 24.3 °F 26.6 °F 86% 29.73 in 10.0 mi NE 5.8 mph - N/A   Mostly Cloudy
3:36 PM 30.2 °F 24.3 °F 26.6 °F 86% 29.72 in 10.0 mi NNE 5.8 mph - N/A   Mostly Cloudy
3:56 PM 30.2 °F 25.4 °F 26.6 °F 86% 29.71 in 10.0 mi NNE 4.6 mph - N/A   Overcast
4:16 PM 30.2 °F 26.7 °F 26.6 °F 86% 29.70 in 10.0 mi NNE 3.5 mph - N/A   Mostly Cloudy
4:36 PM 30.2 °F 26.7 °F 26.6 °F 86% 29.70 in 10.0 mi North 3.5 mph - N/A   Mostly Cloudy
4:56 PM 30.2 °F - 24.8 °F 80% 29.69 in 10.0 mi Calm Calm - N/A   Overcast
5:16 PM 30.2 °F 26.7 °F 26.6 °F 86% 29.68 in 10.0 mi NNW 3.5 mph - N/A   Overcast
5:36 PM 32.0 °F 28.7 °F 26.6 °F 80% 29.67 in 10.0 mi East 3.5 mph - N/A   Overcast
5:56 PM 33.8 °F 29.6 °F 26.6 °F 75% 29.67 in 10.0 mi North 4.6 mph - N/A   Overcast
6:16 PM 33.8 °F 27.0 °F 26.6 °F 75% 29.67 in 10.0 mi NE 8.1 mph - N/A   Mostly Cloudy
6:36 PM 33.8 °F 27.7 °F 24.8 °F 70% 29.66 in 10.0 mi NNE 6.9 mph - N/A   Mostly Cloudy
6:56 PM 32.0 °F 27.5 °F 24.8 °F 75% 29.65 in 10.0 mi NE 4.6 mph - N/A   Partly Cloudy
7:16 PM 33.8 °F 27.0 °F 24.8 °F 70% 29.65 in 10.0 mi NE 8.1 mph - N/A   Clear
7:36 PM 30.2 °F 22.6 °F 24.8 °F 80% 29.64 in 10.0 mi NNE 8.1 mph - N/A   Clear
7:56 PM 30.2 °F 26.7 °F 24.8 °F 80% 29.64 in 10.0 mi North 3.5 mph - N/A   Partly Cloudy
8:16 PM 30.2 °F 21.9 °F 23.0 °F 75% 29.64 in 10.0 mi NE 9.2 mph - N/A   Mostly Cloudy
8:36 PM 30.2 °F 23.4 °F 24.8 °F 80% 29.63 in 10.0 mi NE 6.9 mph - N/A   Overcast
8:56 PM 30.2 °F 21.9 °F 26.6 °F 86% 29.63 in 10.0 mi NE 9.2 mph - N/A   Overcast
9:16 PM 30.2 °F 23.4 °F 26.6 °F 86% 29.62 in 10.0 mi NE 6.9 mph - N/A   Overcast
9:36 PM 30.2 °F 23.4 °F 26.6 °F 86% 29.61 in 10.0 mi NE 6.9 mph - N/A   Overcast
9:56 PM 30.2 °F 24.3 °F 26.6 °F 86% 29.60 in 10.0 mi NE 5.8 mph - N/A   Overcast
10:16 PM 30.2 °F 22.6 °F 26.6 °F 86% 29.60 in 10.0 mi NE 8.1 mph - N/A   Overcast
10:36 PM 30.2 °F 21.9 °F 26.6 °F 86% 29.59 in 10.0 mi NE 9.2 mph - N/A   Mostly Cloudy
10:56 PM 30.2 °F 24.3 °F 26.6 °F 86% 29.58 in 10.0 mi NE 5.8 mph - N/A   Scattered Clouds
11:16 PM 30.2 °F 23.4 °F 26.6 °F 86% 29.58 in 10.0 mi NE 6.9 mph - N/A   Mostly Cloudy
11:36 PM 30.2 °F 23.4 °F 26.6 °F 86% 29.57 in 10.0 mi ENE 6.9 mph - N/A   Overcast
11:56 PM 32.0 °F 26.4 °F 26.6 °F 80% 29.56 in 10.0 mi ENE 5.8 mph - N/A   Overcast